LNI224 WIPP-WAHI

Flight info

Callsign LNI224
Flight time N/A
Altitude 33000
Route BORAS W12E BIDAK B469 HLM W17 CLP
Aircraft B739/M-SDE2E3FGHIRWXY/LB1

Departure

Time N/A
Airport Sultan Mahmud Badaruddin II Airport (WIPP)

Arrival

Time 2026-05-05 14:34
Airport Yogyakarta International Airport (WAHI)
Time Latitude Longitude Altitude Speed Heading
2026-05-05 14:32 -7.88302 109.99584 984 ft 149 kts 110°
2026-05-05 14:33 -7.88643 110.00526 826 ft 140 kts 111°
2026-05-05 14:33 -7.88979 110.01452 645 ft 141 kts 111°
2026-05-05 14:33 -7.89315 110.02380 443 ft 140 kts 110°
2026-05-05 14:33 -7.89654 110.03310 316 ft 144 kts 109°
2026-05-05 14:34 -7.89993 110.04267 119 ft 141 kts 110°
2026-05-05 14:34 -7.90312 110.05116 37 ft 107 kts 110°
2026-05-05 14:34 -7.90495 110.05620 44 ft 50 kts 110°
2026-05-05 14:34 -7.90611 110.05935 44 ft 45 kts 112°
2026-05-05 14:35 -7.90668 110.06208 41 ft 31 kts 89°
2026-05-05 14:35 -7.90618 110.06340 41 ft 15 kts
2026-05-05 14:35 -7.90551 110.06274 40 ft 15 kts 288°
2026-05-05 14:35 -7.90516 110.06179 42 ft 14 kts 291°
2026-05-05 14:36 -7.90482 110.06088 42 ft 14 kts 290°
2026-05-05 14:36 -7.90450 110.05998 43 ft 14 kts 290°
2026-05-05 14:36 -7.90412 110.05891 43 ft 18 kts 290°
2026-05-05 14:36 -7.90367 110.05772 42 ft 17 kts 302°
2026-05-05 14:37 -7.90273 110.05772 39 ft 2 kts 20°
2026-05-05 14:39 -7.90266 110.05774 37 ft 4 kts 20°
2026-05-05 14:39 -7.90212 110.05791 37 ft 10 kts
2026-05-05 14:40 -7.90152 110.05769 37 ft 7 kts
2026-05-05 14:40 -7.90105 110.05784 37 ft 7 kts 21°
2026-05-05 14:40 -7.90081 110.05793 37 ft 0 kts 20°